Location: Newark
(44.6768°N, 22.5302°E)
Time: 03:41:49
(UTC+00:00)

CAS-6 - Pass Details

Date: 05 July 2022
Orbit: 613 x 634 km, 97.9° (Epoch: 13 August)

Event Time Altitude Azimuth Distance (km) Brightness Sun altitude
Exits shadow 19:39:04 12° 107° (ESE) 1,854 ? -11.6°
Maximum altitude 19:41:46 21° 65° (ENE) 1,430 ? -11.9°
Drops below altitude 10° 19:44:58 10° 17° (NNE) 1,998 ? -12.3°
Sets 19:47:35 0° 1° (N) 2,905 ? -12.6°
